Time,TemperatureF,DewpointF,PressureIn,WindDirection,WindDirectionDegrees,WindSpeedMPH,WindSpeedGustMPH,Humidity,HourlyPrecipIn,Conditions,Clouds,dailyrainin,SoftwareType,DateUTC
2013-02-24 00:01:00,37.0,36.0,29.79,ENE,61,5.0,14.0,96,0.01,,,0.41,weatherlink.com 1.10,2013-02-24 05:01:00,
2013-02-24 00:16:00,37.4,36.0,29.79,ENE,67,8.0,14.0,96,0.01,,,0.00,weatherlink.com 1.10,2013-02-24 05:16:00,
2013-02-24 00:31:00,37.6,37.0,29.78,NE,56,8.0,14.0,96,0.00,,,0.00,weatherlink.com 1.10,2013-02-24 05:31:00,
2013-02-24 00:46:00,37.8,37.0,29.78,NNW,327,5.0,14.0,96,0.00,,,0.00,weatherlink.com 1.10,2013-02-24 05:46:00,
2013-02-24 01:01:00,38.1,37.0,29.78,NE,56,8.0,10.0,95,0.00,,,0.00,weatherlink.com 1.10,2013-02-24 06:01:00,
2013-02-24 01:16:00,38.3,37.0,29.79,ENE,63,6.0,8.0,95,0.00,,,0.00,weatherlink.com 1.10,2013-02-24 06:16:00,
2013-02-24 01:31:00,38.3,37.0,29.78,ENE,58,3.0,9.0,95,0.00,,,0.00,weatherlink.com 1.10,2013-02-24 06:31:00,
2013-02-24 01:46:00,38.4,37.0,29.79,NW,304,1.0,9.0,95,0.00,,,0.00,weatherlink.com 1.10,2013-02-24 06:46:00,
2013-02-24 02:01:00,38.3,37.0,29.78,NE,56,3.0,6.0,95,0.01,,,0.01,weatherlink.com 1.10,2013-02-24 07:01:00,
2013-02-24 02:16:00,38.1,37.0,29.77,ENE,64,3.0,6.0,95,0.01,,,0.01,weatherlink.com 1.10,2013-02-24 07:16:00,
2013-02-24 02:31:00,38.0,37.0,29.77,East,91,2.0,6.0,95,0.01,,,0.01,weatherlink.com 1.10,2013-02-24 07:31:00,
2013-02-24 02:46:00,38.1,37.0,29.77,ENE,71,2.0,4.0,96,0.01,,,0.01,weatherlink.com 1.10,2013-02-24 07:46:00,
2013-02-24 03:16:00,37.9,37.0,29.77,NW,316,0.0,4.0,95,0.00,,,0.01,weatherlink.com 1.10,2013-02-24 08:16:00,
2013-02-24 03:31:00,38.0,37.0,29.77,WSW,249,0.0,4.0,95,0.00,,,0.01,weatherlink.com 1.10,2013-02-24 08:31:00,
2013-02-24 03:46:00,38.0,37.0,29.77,WSW,245,1.0,4.0,95,0.00,,,0.01,weatherlink.com 1.10,2013-02-24 08:46:00,
2013-02-24 04:01:00,37.9,37.0,29.78,East,92,1.0,5.0,95,0.00,,,0.01,weatherlink.com 1.10,2013-02-24 09:01:00,
2013-02-24 04:16:00,37.9,37.0,29.78,SE,142,1.0,6.0,95,0.00,,,0.01,weatherlink.com 1.10,2013-02-24 09:16:00,
2013-02-24 04:31:00,38.1,37.0,29.77,ENE,68,3.0,5.0,95,0.00,,,0.01,weatherlink.com 1.10,2013-02-24 09:31:00,
2013-02-24 04:46:00,38.4,37.0,29.75,NE,53,3.0,6.0,95,0.00,,,0.01,weatherlink.com 1.10,2013-02-24 09:46:00,
2013-02-24 05:01:00,38.3,37.0,29.74,East,79,6.0,7.0,94,0.01,,,0.02,weatherlink.com 1.10,2013-02-24 10:01:00,
2013-02-24 05:16:00,38.3,37.0,29.74,NE,44,5.0,5.0,94,0.01,,,0.02,weatherlink.com 1.10,2013-02-24 10:16:00,
2013-02-24 05:31:00,38.5,37.0,29.74,ENE,68,3.0,8.0,93,0.01,,,0.02,weatherlink.com 1.10,2013-02-24 10:31:00,
2013-02-24 05:46:00,38.8,37.0,29.73,NE,50,4.0,7.0,93,0.01,,,0.02,weatherlink.com 1.10,2013-02-24 10:46:00,
2013-02-24 06:01:00,38.9,37.0,29.74,ENE,67,2.0,5.0,93,0.00,,,0.02,weatherlink.com 1.10,2013-02-24 11:01:00,
2013-02-24 06:16:00,38.9,37.0,29.74,ENE,71,2.0,5.0,92,0.00,,,0.02,weatherlink.com 1.10,2013-02-24 11:16:00,
2013-02-24 06:31:00,38.9,37.0,29.75,ENE,68,0.0,5.0,92,0.00,,,0.02,weatherlink.com 1.10,2013-02-24 11:31:00,
2013-02-24 06:46:00,38.9,37.0,29.75,SSE,148,0.0,5.0,91,0.00,,,0.02,weatherlink.com 1.10,2013-02-24 11:46:00,
2013-02-24 07:01:00,38.9,37.0,29.76,West,264,0.0,4.0,91,0.00,,,0.02,weatherlink.com 1.10,2013-02-24 12:01:00,
2013-02-24 07:16:00,38.9,36.0,29.76,South,177,2.0,7.0,90,0.00,,,0.02,weatherlink.com 1.10,2013-02-24 12:16:00,
2013-02-24 07:31:00,38.9,37.0,29.76,West,278,3.0,4.0,91,0.00,,,0.02,weatherlink.com 1.10,2013-02-24 12:31:00,
2013-02-24 07:47:00,39.0,36.0,29.76,NE,52,1.0,5.0,90,0.00,,,0.02,weatherlink.com 1.10,2013-02-24 12:47:00,
2013-02-24 08:02:00,39.4,37.0,29.75,SW,215,3.0,4.0,89,0.00,,,0.02,weatherlink.com 1.10,2013-02-24 13:02:00,
2013-02-24 08:17:00,39.7,37.0,29.75,ENE,60,2.0,5.0,89,0.00,,,0.02,weatherlink.com 1.10,2013-02-24 13:17:00,
2013-02-24 08:32:00,40.3,37.0,29.75,West,273,3.0,5.0,88,0.00,,,0.02,weatherlink.com 1.10,2013-02-24 13:32:00,
2013-02-24 08:47:00,41.2,37.0,29.76,NW,315,3.0,8.0,86,0.00,,,0.02,weatherlink.com 1.10,2013-02-24 13:47:00,
2013-02-24 09:02:00,42.0,38.0,29.76,NNW,347,0.0,5.0,85,0.00,,,0.02,weatherlink.com 1.10,2013-02-24 14:02:00,
2013-02-24 09:17:00,42.4,38.0,29.76,SW,235,2.0,4.0,84,0.00,,,0.02,weatherlink.com 1.10,2013-02-24 14:17:00,
2013-02-24 09:32:00,41.7,38.0,29.76,NW,314,7.0,9.0,85,0.00,,,0.02,weatherlink.com 1.10,2013-02-24 14:32:00,
2013-02-24 09:47:00,42.4,38.0,29.75,West,260,4.0,10.0,85,0.00,,,0.02,weatherlink.com 1.10,2013-02-24 14:47:00,
2013-02-24 10:02:00,43.3,39.0,29.76,West,274,2.0,12.0,83,0.00,,,0.02,weatherlink.com 1.10,2013-02-24 15:02:00,
2013-02-24 10:17:00,43.6,38.0,29.76,West,274,2.0,6.0,81,0.00,,,0.02,weatherlink.com 1.10,2013-02-24 15:17:00,
2013-02-24 10:32:00,43.3,38.0,29.75,WNW,291,3.0,9.0,80,0.00,,,0.02,weatherlink.com 1.10,2013-02-24 15:32:00,
2013-02-24 10:47:00,43.5,38.0,29.75,WNW,297,2.0,11.0,80,0.00,,,0.02,weatherlink.com 1.10,2013-02-24 15:47:00,
2013-02-24 11:02:00,43.9,37.0,29.76,WSW,248,5.0,11.0,78,0.00,,,0.02,weatherlink.com 1.10,2013-02-24 16:02:00,
2013-02-24 11:17:00,44.4,38.0,29.76,NW,307,5.0,13.0,77,0.00,,,0.02,weatherlink.com 1.10,2013-02-24 16:17:00,
2013-02-24 11:32:00,44.7,38.0,29.77,West,259,5.0,14.0,77,0.00,,,0.02,weatherlink.com 1.10,2013-02-24 16:32:00,
2013-02-24 11:47:00,45.5,37.0,29.76,East,79,2.0,9.0,72,0.00,,,0.02,weatherlink.com 1.10,2013-02-24 16:47:00,
2013-02-24 12:02:00,46.1,38.0,29.75,East,83,8.0,8.0,72,0.00,,,0.02,weatherlink.com 1.10,2013-02-24 17:02:00,
2013-02-24 12:17:00,46.2,37.0,29.75,NNW,330,0.0,10.0,71,0.00,,,0.02,weatherlink.com 1.10,2013-02-24 17:17:00,
2013-02-24 12:32:00,46.4,37.0,29.74,SW,224,2.0,6.0,71,0.00,,,0.02,weatherlink.com 1.10,2013-02-24 17:32:00,
2013-02-24 12:47:00,47.2,35.0,29.74,NNW,340,4.0,13.0,64,0.00,,,0.02,weatherlink.com 1.10,2013-02-24 17:47:00,
2013-02-24 13:02:00,48.0,35.0,29.74,WSW,242,2.0,12.0,61,0.00,,,0.02,weatherlink.com 1.10,2013-02-24 18:02:00,
2013-02-24 13:17:00,48.3,33.0,29.73,WSW,250,7.0,12.0,57,0.00,,,0.02,weatherlink.com 1.10,2013-02-24 18:17:00,
2013-02-24 13:32:00,48.3,33.0,29.73,WNW,287,2.0,11.0,56,0.00,,,0.02,weatherlink.com 1.10,2013-02-24 18:32:00,
2013-02-24 13:47:00,48.1,33.0,29.72,East,87,4.0,8.0,56,0.00,,,0.02,weatherlink.com 1.10,2013-02-24 18:47:00,
2013-02-24 14:02:00,47.9,32.0,29.73,West,269,2.0,10.0,55,0.00,,,0.02,weatherlink.com 1.10,2013-02-24 19:02:00,
2013-02-24 14:17:00,47.6,32.0,29.73,WNW,301,10.0,15.0,55,0.00,,,0.02,weatherlink.com 1.10,2013-02-24 19:17:00,
2013-02-24 14:32:00,47.1,32.0,29.73,West,267,6.0,15.0,56,0.00,,,0.02,weatherlink.com 1.10,2013-02-24 19:32:00,
2013-02-24 14:47:00,46.6,31.0,29.73,WNW,299,3.0,18.0,56,0.00,,,0.02,weatherlink.com 1.10,2013-02-24 19:47:00,
2013-02-24 15:02:00,46.2,31.0,29.74,West,262,6.0,13.0,55,0.00,,,0.02,weatherlink.com 1.10,2013-02-24 20:02:00,
2013-02-24 15:17:00,45.5,30.0,29.74,WNW,287,8.0,13.0,54,0.00,,,0.02,weatherlink.com 1.10,2013-02-24 20:17:00,
2013-02-24 15:32:00,45.2,29.0,29.75,West,269,9.0,14.0,54,0.00,,,0.02,weatherlink.com 1.10,2013-02-24 20:32:00,
2013-02-24 15:47:00,44.6,29.0,29.76,NW,316,5.0,18.0,54,0.00,,,0.02,weatherlink.com 1.10,2013-02-24 20:47:00,
2013-02-24 16:02:00,44.2,29.0,29.77,SW,228,4.0,14.0,56,0.00,,,0.02,weatherlink.com 1.10,2013-02-24 21:02:00,
2013-02-24 16:17:00,43.8,29.0,29.77,WNW,290,8.0,12.0,56,0.00,,,0.02,weatherlink.com 1.10,2013-02-24 21:17:00,
2013-02-24 16:32:00,43.1,29.0,29.78,WNW,288,5.0,16.0,59,0.00,,,0.02,weatherlink.com 1.10,2013-02-24 21:32:00,
2013-02-24 16:47:00,42.8,29.0,29.80,West,281,2.0,11.0,59,0.00,,,0.02,weatherlink.com 1.10,2013-02-24 21:47:00,
2013-02-24 17:02:00,41.7,29.0,29.81,WNW,294,6.0,17.0,62,0.00,,,0.02,weatherlink.com 1.10,2013-02-24 22:02:00,
2013-02-24 17:18:00,40.6,29.0,29.82,NW,307,7.0,14.0,64,0.00,,,0.02,weatherlink.com 1.10,2013-02-24 22:18:00,
2013-02-24 17:33:00,39.7,29.0,29.83,WNW,284,10.0,20.0,65,0.00,,,0.02,weatherlink.com 1.10,2013-02-24 22:33:00,
2013-02-24 17:48:00,39.4,28.0,29.84,WNW,285,5.0,10.0,63,0.00,,,0.02,weatherlink.com 1.10,2013-02-24 22:48:00,
2013-02-24 18:03:00,39.1,26.0,29.84,NW,311,8.0,15.0,59,0.00,,,0.02,weatherlink.com 1.10,2013-02-24 23:03:00,
2013-02-24 18:17:00,39.1,25.0,29.85,WNW,302,4.0,12.0,58,0.00,,,0.02,weatherlink.com 1.10,2013-02-24 23:17:00,
2013-02-24 18:32:00,38.7,24.0,29.86,West,275,7.0,18.0,57,0.00,,,0.02,weatherlink.com 1.10,2013-02-24 23:32:00,
2013-02-24 18:47:00,38.6,24.0,29.87,WNW,283,7.0,16.0,56,0.00,,,0.02,weatherlink.com 1.10,2013-02-24 23:47:00,
2013-02-24 19:17:00,38.1,24.0,29.88,WNW,299,6.0,18.0,57,0.00,,,0.02,weatherlink.com 1.10,2013-02-25 00:17:00,
2013-02-24 19:32:00,38.0,24.0,29.89,WNW,301,9.0,15.0,58,0.00,,,0.02,weatherlink.com 1.10,2013-02-25 00:32:00,
2013-02-24 19:47:00,37.8,24.0,29.90,WNW,285,15.0,18.0,58,0.00,,,0.02,weatherlink.com 1.10,2013-02-25 00:47:00,
2013-02-24 20:02:00,37.5,24.0,29.91,West,272,3.0,16.0,58,0.00,,,0.02,weatherlink.com 1.10,2013-02-25 01:02:00,
2013-02-24 20:17:00,37.3,24.0,29.92,SW,221,0.0,20.0,58,0.00,,,0.02,weatherlink.com 1.10,2013-02-25 01:17:00,
2013-02-24 20:47:00,36.7,24.0,29.93,West,279,6.0,16.0,60,0.00,,,0.02,weatherlink.com 1.10,2013-02-25 01:47:00,
2013-02-24 21:02:00,36.5,24.0,29.94,WNW,302,3.0,12.0,61,0.00,,,0.02,weatherlink.com 1.10,2013-02-25 02:02:00,
2013-02-24 21:17:00,36.3,24.0,29.93,West,281,6.0,11.0,61,0.00,,,0.02,weatherlink.com 1.10,2013-02-25 02:17:00,
2013-02-24 21:32:00,36.0,24.0,29.94,WNW,295,4.0,11.0,61,0.00,,,0.02,weatherlink.com 1.10,2013-02-25 02:32:00,
2013-02-24 21:47:00,35.9,23.0,29.94,NW,312,4.0,13.0,60,0.00,,,0.02,weatherlink.com 1.10,2013-02-25 02:47:00,
2013-02-24 22:02:00,35.7,23.0,29.94,NW,318,5.0,14.0,60,0.00,,,0.02,weatherlink.com 1.10,2013-02-25 03:02:00,
2013-02-24 22:17:00,35.5,23.0,29.95,NW,304,5.0,14.0,60,0.00,,,0.02,weatherlink.com 1.10,2013-02-25 03:17:00,
2013-02-24 22:47:00,35.2,23.0,29.95,WNW,287,3.0,13.0,61,0.00,,,0.02,weatherlink.com 1.10,2013-02-25 03:47:00,
2013-02-24 23:02:00,35.0,23.0,29.95,West,264,2.0,16.0,62,0.00,,,0.02,weatherlink.com 1.10,2013-02-25 04:02:00,
2013-02-24 23:18:00,34.9,23.0,29.95,West,267,7.0,10.0,62,0.00,,,0.02,weatherlink.com 1.10,2013-02-25 04:18:00,
2013-02-24 23:33:00,34.8,23.0,29.95,West,269,3.0,10.0,62,0.00,,,0.02,weatherlink.com 1.10,2013-02-25 04:33:00,
2013-02-24 23:48:00,34.8,23.0,29.95,West,264,5.0,10.0,62,0.00,,,0.02,weatherlink.com 1.10,2013-02-25 04:48:00,